Regional Weather Roundup
Issued by NWS Jackson, KY

Home | Current Version | Previous Version | Text Only | Print | Product List | Glossary Off
Versions: 1 2 3 4 5 6 7 8 9 10 11 12 13 14 15 16 17 18 19 20 21 22 23 24 25 26 27 28 29 30 31 32 33 34 35 36 37 38 39 40 41 42 43 44 45 46 47 48 49 50

000
ASUS43 KJKL 261910
RWRJKL

EAST KENTUCKY HOURLY WEATHER ROUNDUP
NATIONAL WEATHER SERVICE JACKSON KY
300 PM EDT TUE MAY 26 2015

NOTE: "FAIR" INDICATES FEW OR NO CLOUDS BELOW 12,000 FEET WITH
NO SIGNIFICANT WEATHER AND/OR OBSTRUCTIONS TO VISIBILITY.

* THESE REPORTS ARE NOT UNDER NWS QUALITY CONTROL AND MAY NOT
  REPORT WEATHER SUCH AS PRECIPITATION AND FOG.

KYZ079-080-083-085-087-088-110-112-115-119-120-262000
...EASTERN KENTUCKY...

CITY           SKY/WX    TMP DP  RH WIND       PRES   REMARKS
JACKSON        MOSUNNY   84  64  50 VRB7      30.13F
LONDON         MOSUNNY   84  61  45 S13G25    30.12F
SOMERSET*      PTSUNNY   81  63  54 S14G21    30.10F
MONTICELLO*    PTSUNNY   84  68  58 S13       30.10F
MIDDLESBORO*   PTSUNNY   82  67  60 W12       30.14F
HARLAN APT*    MOCLDY    81  63  54 S3        30.16F
HAZARD APT*    PTCLDY    86  63  45 S12G18    30.13F
BLACK MTN*       N/A     72  64  78 SW7         N/A
PIKEVILLE APT* PTSUNNY   82  64  54 S5        30.15F
BIG SANDY*     MOCLDY    85  65  51 S10       30.14F
MOREHEAD APT*  PTCLDY    84  64  51 S10G18    30.10F
$$

KYZ035-036-041-042-044-050-067-078-099-262000
...CENTRAL KENTUCKY...

CITY           SKY/WX    TMP DP  RH WIND       PRES   REMARKS
MT STERLING*   PTSUNNY   84  68  58 SW14G22   30.08F
FLEMING/MASON* MOSUNNY   84  68  58 S10G23    30.06F
DANVILLE*      CLOUDY    79  68  69 S13G18    30.08F
RICHMOND*      CLOUDY    82  63  51 S15G21    30.08F
LEXINGTON      PTSUNNY   82  68  62 S18G25    30.05F
FRANKFORT      CLOUDY    77  68  73 S13       30.03F
$$

KYZ091>093-OHZ055-061-077-WVZ005-015-034-035-042-262000
...SOUTHERN OHIO/WEST VIRGINIA...

CITY           SKY/WX    TMP DP  RH WIND       PRES   REMARKS
COVINGTON      PTSUNNY   82  69  64 S17G28    30.02F
COLUMBUS       PTSUNNY   84  64  50 S16G28    30.05F
DAYTON         PTSUNNY   85  65  51 S15G25    30.00F
WILMINGTON     MOSUNNY   80  63  55 S20G29    30.04F
HUNTINGTON     PTSUNNY   86  65  49 S13G22    30.09F
CHARLESTON     PTSUNNY   86  63  45 SW13G20   30.13F
PINEVILLE*     CLOUDY    84  66  53 MISG      30.24F
BECKLEY        CLOUDY    76  63  64 VRB6      30.24F
BLUEFIELD      CLOUDY    74  64  71 S7        30.28F
$$

VAZ002-007-008-TNZ017-027-036-066-071-262000
...SOUTHWEST VIRGINIA/EAST TENNESSEE...

CITY           SKY/WX    TMP DP  RH WIND       PRES   REMARKS
WISE*          PTSUNNY   79  59  50 S10       30.25F
JONESVILLE*    MOCLDY    82  64  54 S8G16     30.18F
ABINGDON*      PTSUNNY   83  64  53 SW5       30.23F
BRISTOL        PTSUNNY   84  62  47 S12       30.19F
KNOXVILLE      PTSUNNY   87  62  43 SW16G23   30.11F
OAK RIDGE      PTSUNNY   79  71  76 VRB5      30.14F
CROSSVILLE     PTSUNNY   77  65  66 S9G17     30.14F
NASHVILLE      CLOUDY    79  69  71 S13G23    30.05F
$$

...KEY TO REMARKS...
VSB - VISIBILITY IN MILES
WCI - WIND CHILL INDEX
HX  - HEAT INDEX

$$



USA.gov is the U.S. government's official web portal to all federal, state and local government web resources and services.